STARLINK-1675

Last updated on Fri Nov 06 2020 00:02:03 GMT+0000 (Coordinated Universal Time)

1 46575U 20070AV 20310.83334491 -.00039921 00000-0 -43124-3 0 9990 2 46575 53.0018 292.9472 0000856 73.3873 21.4771 15.62815415 5589

Satellite not in orbit